Weather History for KPIE - November, 2012

Change the Weather History Date:

Friday, November 16, 2012

  Actual Average Record
Temperature  
Mean Temperature 62 °F -  
Max Temperature 66 °F 77 °F 86 °F (1957)
Min Temperature 59 °F 61 °F 40 °F (1969)
Degree Days  
Heating Degree Days 2    
Growing Degree Days 12 (Base 50)    
Moisture  
Dew Point 56 °F    
Average Humidity 83    
Maximum Humidity 94    
Minimum Humidity 70    
Precipitation  
Precipitation 0.00 in - - ()
Sea Level Pressure  
Sea Level Pressure 30.15 in    
Wind  
Wind Speed 7 mph (NNE)    
Max Wind Speed 12 mph    
Max Gust Speed -    
Visibility 9 miles    
Events Rain    
Averages and records for this station are not official NWS values.
T = Trace of Precipitation, MM = Missing Value Source: NWS Daily Summary

Daily Weather History Graph

Daily Weather History Graph

Search for Another Location

Airport or City:

Trip Planner

Search our weather history database for the weather conditions in past years. The results will help you decide how hot, cold, wet, or windy it might be!

Date:

Astronomy

Nov. 16, 2012 Rise Set
Actual Time 6:53 AM EST 5:37 PM EST
Civil Twilight 6:28 AM EST 6:02 PM EST
Nautical Twilight 6:00 AM EST 6:30 PM EST
Astronomical Twilight 5:32 AM EST 6:58 PM EST
Moon 9:42 AM EST (11/16) 8:39 PM EST (11/16)
Length of Visible Light 11h 34m
Length of Day
10h 44m
Waxing Crescent, 11% of the Moon is Illuminated
Nov 16
Waxing Crescent
Nov 20
First Quarter
Nov 28
Full
Dec 6
Last Quarter
Dec 13
New

Hourly Weather History & Observations

Time (EST) Temp. Dew Point Humidity Pressure Visibility Wind Dir Wind Speed Gust Speed Precip Events Conditions
12:53 AM 63.0 °F 57.9 °F 84% 30.15 in 10.0 mi NE 5.8 mph - N/A   Overcast
1:53 AM 60.1 °F 57.0 °F 90% 30.14 in 10.0 mi NNE 5.8 mph - N/A   Overcast
2:53 AM 60.1 °F 57.9 °F 93% 30.15 in 6.0 mi North 6.9 mph - N/A   Overcast
3:53 AM 59.0 °F 57.0 °F 93% 30.15 in 10.0 mi North 6.9 mph - N/A   Overcast
4:09 AM 59.0 °F 57.2 °F 94% 30.14 in 10.0 mi North 5.8 mph - 0.00 in   Overcast
4:34 AM 60.8 °F 57.2 °F 88% 30.14 in 10.0 mi North 4.6 mph - 0.00 in   Overcast
4:45 AM 60.8 °F 57.2 °F 88% 30.14 in 7.0 mi NNE 6.9 mph - 0.00 in Rain Light Rain
4:53 AM 60.1 °F 57.0 °F 90% 30.14 in 10.0 mi North 8.1 mph - 0.00 in   Overcast
5:02 AM 59.0 °F 57.2 °F 94% 30.14 in 8.0 mi North 8.1 mph - N/A   Overcast
5:36 AM 59.0 °F 57.2 °F 94% 30.14 in 5.0 mi North 8.1 mph - N/A   Overcast
5:53 AM 59.0 °F 57.0 °F 93% 30.15 in 8.0 mi North 6.9 mph - N/A   Overcast
6:00 AM 59.0 °F 57.2 °F 94% 30.15 in 9.0 mi NE 8.1 mph - N/A   Overcast
6:53 AM 59.0 °F 57.0 °F 93% 30.15 in 10.0 mi NNE 10.4 mph - N/A   Overcast
7:53 AM 59.0 °F 57.0 °F 93% 30.16 in 5.0 mi NNE 9.2 mph - N/A   Overcast
8:53 AM 59.0 °F 55.9 °F 90% 30.17 in 7.0 mi NE 9.2 mph - N/A   Overcast
9:53 AM 60.1 °F 55.9 °F 86% 30.19 in 10.0 mi NE 6.9 mph - N/A   Overcast
10:53 AM 61.0 °F 55.9 °F 83% 30.19 in 10.0 mi NE 8.1 mph - N/A   Overcast
11:13 AM 60.8 °F 57.2 °F 88% 30.20 in 8.0 mi NE 6.9 mph - N/A   Overcast
11:53 AM 63.0 °F 57.0 °F 81% 30.19 in 10.0 mi NNE 5.8 mph - N/A   Overcast
12:33 PM 62.6 °F 55.4 °F 77% 30.16 in 10.0 mi ENE 10.4 mph - N/A   Scattered Clouds
12:53 PM 64.0 °F 57.0 °F 78% 30.14 in 10.0 mi NE 6.9 mph - N/A   Partly Cloudy
1:53 PM 64.9 °F 55.9 °F 73% 30.12 in 10.0 mi NE 6.9 mph - N/A   Scattered Clouds
2:53 PM 66.9 °F 57.0 °F 70% 30.11 in 10.0 mi ENE 6.9 mph - N/A   Scattered Clouds
3:53 PM 66.9 °F 57.0 °F 70% 30.10 in 10.0 mi ENE 3.5 mph - N/A   Mostly Cloudy
4:53 PM 66.0 °F 55.9 °F 70% 30.11 in 10.0 mi NE 6.9 mph - N/A   Mostly Cloudy
5:53 PM 64.9 °F 55.0 °F 70% 30.11 in 10.0 mi NE 11.5 mph - N/A   Overcast
6:53 PM 64.9 °F 55.9 °F 73% 30.13 in 10.0 mi NNE 9.2 mph - N/A   Scattered Clouds
7:53 PM 64.0 °F 55.0 °F 73% 30.14 in 10.0 mi NNE 9.2 mph - N/A   Scattered Clouds
8:53 PM 62.1 °F 54.0 °F 75% 30.14 in 10.0 mi NNE 10.4 mph - N/A   Partly Cloudy
9:53 PM 61.0 °F 54.0 °F 78% 30.15 in 10.0 mi NNE 10.4 mph - N/A   Partly Cloudy
10:53 PM 60.1 °F 54.0 °F 80% 30.15 in 10.0 mi North 11.5 mph - N/A   Scattered Clouds
11:00 PM 60.8 °F 53.6 °F 77% 30.16 in 10.0 mi NNE 11.5 mph - N/A   Mostly Cloudy
11:53 PM 61.0 °F 55.0 °F 81% 30.14 in 10.0 mi NNE 10.4 mph - N/A   Overcast